Pittsfield, IL

9:44 AM CDT on March 26, 2017 (GMT -0500)
Pittsfield Penstone Municipal

Weather History for KPPQ - December, 2012

Change the Weather History Date:

Thursday, December 6, 2012

  Actual Average (KUIN) Record (KUIN)
Temperature  
Mean Temperature 44 °F -  
Max Temperature 52 °F 38 °F 69 °F (1951)
Min Temperature 37 °F 24 °F 0 °F (1976)
Degree Days  
Heating Degree Days 20    
Moisture  
Dew Point 40 °F    
Average Humidity 77    
Maximum Humidity 93    
Minimum Humidity 60    
Precipitation  
Precipitation 0.03 in - - ()
Sea Level Pressure  
Sea Level Pressure 29.97 in    
Wind  
Wind Speed 6 mph (SSE)    
Max Wind Speed 10 mph    
Max Gust Speed -    
Visibility 10 miles    
Events Rain    
Averages and records for this station are not official NWS values.
T = Trace of Precipitation, MM = Missing Value Source: NWS Daily Summary

Daily Weather History Graph

Daily Weather History Graph

Search for Another Location

Airport or City:

Trip Planner

Search our weather history database for the weather conditions in past years. The results will help you decide how hot, cold, wet, or windy it might be!

Date:

Astronomy

Dec. 06, 2012 Rise Set
Actual Time 7:09 AM CST 4:38 PM CST
Civil Twilight 6:39 AM CST 5:08 PM CST
Nautical Twilight 6:06 AM CST 5:42 PM CST
Astronomical Twilight 5:33 AM CST 6:15 PM CST
Moon No Moon Rise 12:03 PM CST (12/6)
Length of Visible Light 10h 28m
Length of Day
9h 28m
Waning Gibbous, 49% of the Moon is Illuminated
Dec 6
Waning Gibbous
Dec 13
New
Dec 19
First Quarter
Dec 28
Full
Jan 4
Last Quarter

Hourly Weather History & Observations

Time (CST) Temp. Windchill Dew Point Humidity Pressure Visibility Wind Dir Wind Speed Gust Speed Precip Events Conditions
7:35 AM 37.6 °F 32.3 °F 34.3 °F 88% 30.07 in 10.0 mi SE 6.9 mph - N/A   Clear
7:55 AM 38.3 °F 31.9 °F 34.7 °F 87% 30.06 in 10.0 mi SE 9.2 mph - N/A   Clear
8:15 AM 38.7 °F 31.8 °F 34.9 °F 86% 30.06 in 10.0 mi SE 10.4 mph - N/A   Clear
8:35 AM 39.2 °F 33.6 °F 35.2 °F 86% 30.05 in 10.0 mi SE 8.1 mph - N/A   Clear
8:55 AM 40.1 °F 35.3 °F 35.8 °F 85% 30.05 in 10.0 mi SE 6.9 mph - N/A   Clear
9:15 AM 41.0 °F 35.8 °F 36.5 °F 84% 30.06 in 10.0 mi SE 8.1 mph - N/A   Clear
9:35 AM 41.5 °F 36.4 °F 36.7 °F 83% 30.06 in 10.0 mi SE 8.1 mph - N/A   Clear
9:55 AM 42.8 °F 38.6 °F 37.4 °F 81% 30.05 in 10.0 mi SSE 6.9 mph - N/A   Clear
10:15 AM 44.8 °F 39.4 °F 38.8 °F 80% 30.04 in 10.0 mi SE 10.4 mph - N/A   Clear
10:35 AM 46.8 °F - 39.4 °F 75% 30.03 in 10.0 mi SSE 10.4 mph - N/A   Clear
10:55 AM 48.2 °F - 39.0 °F 71% 30.03 in 10.0 mi SSE 6.9 mph - N/A   Clear
11:15 AM 49.5 °F - 39.4 °F 68% 30.01 in 10.0 mi South 6.9 mph - N/A   Scattered Clouds
11:35 AM 49.6 °F - 39.0 °F 67% 30.00 in 10.0 mi South 6.9 mph - N/A   Mostly Cloudy
11:55 AM 50.2 °F - 38.8 °F 65% 30.00 in 10.0 mi SSW 5.8 mph - N/A   Overcast
12:15 PM 50.9 °F - 38.5 °F 62% 29.99 in 10.0 mi SSW 6.9 mph - N/A   Scattered Clouds
12:35 PM 50.9 °F - 37.9 °F 61% 29.98 in 10.0 mi South 6.9 mph - N/A   Scattered Clouds
12:55 PM 50.9 °F - 38.8 °F 63% 29.96 in 10.0 mi SSE 5.8 mph - N/A   Scattered Clouds
1:15 PM 51.1 °F - 39.0 °F 63% 29.96 in 10.0 mi South 5.8 mph - N/A   Clear
1:35 PM 51.6 °F - 39.0 °F 62% 29.95 in 10.0 mi South 5.8 mph - N/A   Scattered Clouds
1:55 PM 51.6 °F - 39.6 °F 63% 29.94 in 10.0 mi SSE 6.9 mph - N/A   Clear
2:15 PM 52.2 °F - 39.4 °F 62% 29.94 in 10.0 mi SSE 6.9 mph - N/A   Clear
2:35 PM 52.7 °F - 39.0 °F 60% 29.94 in 10.0 mi South 4.6 mph - N/A   Clear
2:55 PM 52.7 °F - 40.3 °F 63% 29.94 in 10.0 mi South 5.8 mph - N/A   Clear
3:15 PM 52.7 °F - 40.3 °F 63% 29.93 in 10.0 mi SE 4.6 mph - N/A   Clear
3:35 PM 51.8 °F - 42.1 °F 69% 29.93 in 10.0 mi SE 3.5 mph - N/A   Clear
3:55 PM 51.1 °F - 42.3 °F 72% 29.93 in 10.0 mi SE 3.5 mph - N/A   Clear
4:15 PM 50.9 °F - 41.7 °F 71% 29.93 in 10.0 mi ESE 3.5 mph - N/A   Clear
4:35 PM 50.4 °F - 41.4 °F 71% 29.93 in 10.0 mi Calm Calm - N/A   Clear
4:55 PM 49.5 °F - 40.6 °F 72% 29.93 in 10.0 mi ESE 4.6 mph - N/A   Scattered Clouds
5:15 PM 48.9 °F - 41.0 °F 74% 29.93 in 10.0 mi SE 4.6 mph - N/A   Scattered Clouds
5:35 PM 48.2 °F - 41.0 °F 76% 29.93 in 10.0 mi SE 4.6 mph - N/A   Scattered Clouds
5:55 PM 47.8 °F - 41.2 °F 78% 29.94 in 10.0 mi SE 4.6 mph - N/A   Scattered Clouds
6:15 PM 47.7 °F - 41.9 °F 80% 29.94 in 10.0 mi SE 5.8 mph - N/A   Overcast
6:35 PM 47.7 °F - 41.5 °F 79% 29.95 in 10.0 mi South 4.6 mph - N/A   Overcast
6:55 PM 47.8 °F - 41.4 °F 78% 29.96 in 10.0 mi South 3.5 mph - N/A   Overcast
7:15 PM 47.8 °F - 41.0 °F 77% 29.96 in 10.0 mi Calm Calm - N/A   Mostly Cloudy
7:35 PM 46.9 °F - 41.4 °F 81% 29.96 in 10.0 mi South 3.5 mph - N/A   Mostly Cloudy
7:55 PM 47.3 °F - 41.4 °F 80% 29.95 in 10.0 mi SSE 3.5 mph - N/A   Scattered Clouds
8:15 PM 48.2 °F - 41.0 °F 76% 29.95 in 10.0 mi Calm Calm - N/A Rain Rain
8:35 PM 46.9 °F - 42.1 °F 83% 29.96 in 10.0 mi SSW 4.6 mph - N/A Rain Rain
8:55 PM 46.9 °F - 42.3 °F 84% 29.95 in 10.0 mi SSE 3.5 mph - N/A   Drizzle
9:15 PM 46.4 °F - 42.4 °F 86% 29.95 in 7.0 mi Calm Calm - 0.01 in Rain Light Rain
9:35 PM 46.0 °F 43.9 °F 43.3 °F 90% 29.93 in 7.0 mi ENE 4.6 mph - 0.02 in Rain Light Rain
9:55 PM 45.9 °F 42.3 °F 43.3 °F 91% 29.93 in 7.0 mi SSE 6.9 mph - 0.03 in Rain Light Rain
10:15 PM 46.2 °F 43.3 °F 43.0 °F 88% 29.95 in 10.0 mi South 5.8 mph - N/A   Mostly Cloudy
10:35 PM 45.9 °F - 42.8 °F 89% 29.95 in 10.0 mi Calm Calm - N/A   Clear
10:55 PM 45.5 °F - 43.0 °F 91% 29.94 in 7.0 mi Calm Calm - N/A   Clear
11:15 PM 44.8 °F - 42.8 °F 93% 29.93 in 7.0 mi Calm Calm - N/A   Mostly Cloudy
11:35 PM 45.5 °F - 42.8 °F 90% 29.94 in 10.0 mi Calm Calm - N/A   Overcast
11:55 PM 44.8 °F - 42.4 °F 91% 29.94 in 7.0 mi Calm Calm - N/A   Scattered Clouds